Location: Blienschwiller
(48.3416°N, 7.4182°E)
Time: 09:47:38
(UTC+00:00)

Cosmos 1842 Rocket - Pass Details

Date: 18 February 2020
Orbit: 604 x 635 km, 82.5° (Epoch: 03 April)

Event Time Altitude Azimuth Distance (km) Brightness Sun altitude
Exits shadow 04:02:55 12° 168° (SSE) 1,895 6.0 -25.6°
Maximum altitude 04:06:57 51° 94° (E) 801 4.4 -24.9°
Drops below altitude 10° 04:11:19 10° 19° (NNE) 2,032 6.5 -24.2°
Sets 04:13:37 0° 14° (NNE) 2,946 7.3 -23.8°
